Other Surface Observations
Issued by NWS

Home | Current Version | Previous Version | Text Only | Print | Product List | Glossary On
Versions: 1 2 3 4 5 6 7 8 9 10 11 12 13 14 15 16 17 18 19 20 21 22 23 24 25 26 27 28 29 30 31 32 33 34 35 36 37 38 39 40 41 42 43 44 45 46 47 48 49 50
000
SXUS52 KTAE 300819
OSOTAE
OSOTAE
North Florida/South Alabama/Southwest Georgia Weather Roundup
National Weather Service Tallahassee Florida
400 AM EDT SUN AUG 30 2015

Note: "fair" indicates few or no clouds below 12,000 feet with no
significant weather and/or obstructions to visibility.

!FLZ017-115-028-034-025-300900
...North Florida...

CITY           SKY/WX    TMP DP  RH WIND       PRES   REMARKS
TALLAHASSEE    PTCLDY    74  71  91 CALM      30.02F
APALACHICOLA   CLEAR     70  70 100 N3        30.00F
PERRY          PTCLDY   N/A N/A N/A CALM      30.02S
CROSS CITY       N/A     75  73  93 CALM      29.99F
JACKSONVILLE   LGT RAIN  74  73  97 NE6       30.00F
$$

!FLZ112-006-005-002-011-300900
...Florida Panhandle...

CITY           SKY/WX    TMP DP  RH WIND       PRES   REMARKS
MARIANNA       MOCLDY    71  71 100 CALM      30.02F
BONIFAY        FAIR      70  69  97 CALM      30.03F
PANAMA CITY NW FAIR      70  68  93 N3        30.01F
TYNDALL AFB    CLEAR     71  70  96 E3        30.01F
TYND DRONE APT FAIR      71  71 100 NE5       30.01F
DE FUNIAK SPR  FAIR      69  69  99 NE3       30.03F
EGLIN AFB      CLEAR     72  68  87 NE3       30.02F
DESTIN         CLEAR     74  72  93 E5        30.02F
HURLBURT       CLEAR     70  67  91 N3        30.01F
CRESTVIEW      CLEAR     68  67  96 NE3       30.04F
PENSACOLA      PTCLDY    73  69  87 NE5       30.01F
$$

!ALZ063-066-300900
...South Alabama...

CITY           SKY/WX    TMP DP  RH WIND       PRES   REMARKS
DOTHAN         CLEAR     69  68  96 CALM      30.07F FOG
OZARK CAIRNS     N/A     69  68  99 N2        30.03F
FT RUCKER HELI CLEAR     69  67  93 CALM      30.03F
RUCKER HELI 3  FAIR      69  68  98 NE1       30.05F
RUCKER HELI 2  NOT AVBL
FLORALA APT    PTCLDY    66  64  94 N3        30.05F
ANDALUSIA      FOG       73  70  88 CALM      30.04F VSB 3/4
TROY           PTCLDY    70  69  97 CALM      30.04F FOG
EUFALA         CLOUDY    73  72  96 CALM      30.03F
MOBILE         PTCLDY    72  71  97 NE3       30.03F
$$

!GAZ120>161-300900
...Southwest and South Central Georgia...

CITY           SKY/WX    TMP DP  RH WIND       PRES   REMARKS
THOMASVILLE    CLOUDY    70  70 100 CALM      30.04F
BAINBRIDGE     CLEAR     72  70  94 CALM      30.03F
MOODY AFB      CLOUDY    72  70  94 N3        30.02F
VALDOSTA       CLOUDY    73  72  96 CALM      30.02F
MOULTRIE       MOCLDY    72  70  94 CALM      30.05S
BLAKELY        CLOUDY    73  72  94 CALM      30.05S
ALBANY         HVY RAIN  72  70  93 S7        30.07S FOG
TIFTON         CLOUDY    73  73  98 NE3       30.04F
FITZGERALD     CLOUDY    75  74  96 CALM      30.07F
CORDELE        CLOUDY    76  74  96 E5        30.06S
AMERICUS       CLOUDY    72  72 100 E3        30.07F
HOMERVILLE     FAIR      75  73  94 CALM      30.03F
$$

!GMZ750-755-770-775-300900
...Coastal and Buoy Obs...

STATION/POSITION TIME  TEMP    WIND        PRES    VSBY  WAVE
                       AIR SEA DIR/SP/G                  HT/PER
                 (UTC) (F)     (DEG/KT/KT) (MB)    (MI)  (FT/S)
KEATON BEACH     0800   72      10/  2/  3 1015.9F
CEDAR KEY        0800   75      80/  9/ 10 1015.8F
C TOWER          0800   80     100/  7/  8 1015.4F
APALACHICOLA BUO 0750   82 85   60/ 10/ 12 1014.8F         1/ 3
PANAMA CITY BUOY 0750   81 85  100/  4/  8 1016.0F         1/ 4
MOBILE BUOY      0750   83 85  140/  8/ 10 1016.0F         2/ 6
ORANGE BCH AL BU 0750   83 85  140/ 10/ 12 1015.4F         1/ 5
$$



USA.gov is the U.S. government's official web portal to all federal, state and local government web resources and services.